GW3643 Weather Reports


Display with metric or nautical units.
time (UTC)temp
F
wind
direction
speed
MPH
gust
MPH
rain 1hr
in
rain 24hr
in
rain mn
in
humidity
%
barometer
mb
20260902192549 88 0 0.0 2.0 0.00 0.00 0.00 23 1021.1
20260902192044 88 0 0.0 2.0 0.00 0.00 0.00 23 1021.1
20260902191619 89 0 0.0 2.0 0.00 0.00 0.00 23 1021.1
20260902191044 89 234 0.0 1.0 0.00 0.00 0.00 23 1021.0
20260902190544 89 0 0.0 2.0 0.00 0.00 0.00 23 1020.9
20260902190100 89 236 0.0 4.0 0.00 0.00 0.00 23 1020.9
20260902185543 89 236 0.0 4.0 0.00 0.00 0.00 22 1020.8
20260902185046 90 259 1.0 4.0 0.00 0.00 0.00 22 1020.8
20260902184549 90 218 1.0 5.0 0.00 0.00 0.00 22 1020.7
20260902184045 90 203 1.0 6.0 0.00 0.00 0.00 22 1020.7
20260902183543 91 221 1.0 8.0 0.00 0.00 0.00 21 1020.7
20260902183123 91 234 2.0 8.0 0.00 0.00 0.00 21 1020.6
20260902182549 91 163 2.0 8.0 0.00 0.00 0.00 21 1020.7
20260902182045 91 199 2.0 5.0 0.00 0.00 0.00 21 1020.6
20260902181610 91 230 0.0 5.0 0.00 0.00 0.00 21 1020.5
20260902181045 92 211 1.0 7.0 0.00 0.00 0.00 21 1020.5
20260902180543 92 236 1.0 7.0 0.00 0.00 0.00 21 1020.6
20260902180054 92 251 0.0 6.0 0.00 0.00 0.00 21 1020.6
20260902175545 92 234 2.0 6.0 0.00 0.00 0.00 21 1020.6
20260902175044 92 223 2.0 4.0 0.00 0.00 0.00 21 1020.6
20260902174600 93 0 0.0 4.0 0.00 0.00 0.00 20 1020.6
20260902174045 92 279 0.0 4.0 0.00 0.00 0.00 21 1020.6
20260902173544 93 0 1.0 4.0 0.00 0.00 0.00 20 1020.6
20260902173112 93 242 1.0 8.0 0.00 0.00 0.00 19 1020.6
20260902172543 93 247 1.0 8.0 0.00 0.00 0.00 20 1020.6
20260902172043 93 357 0.0 8.0 0.00 0.00 0.00 20 1020.5
20260902171608 93 309 1.0 8.0 0.00 0.00 0.00 20 1020.4
20260902171045 93 318 1.0 4.0 0.00 0.00 0.00 21 1020.5
20260902170545 93 0 1.0 4.0 0.00 0.00 0.00 22 1020.4
20260902170058 93 193 1.0 7.0 0.00 0.00 0.00 22 1020.4
20260902165546 93 242 2.0 7.0 0.00 0.00 0.00 21 1020.4
20260902165046 94 0 1.0 4.0 0.00 0.00 0.00 21 1020.4
20260902164602 94 341 1.0 4.0 0.00 0.00 0.00 21 1020.5
20260902164044 94 329 1.0 5.0 0.00 0.00 0.00 21 1020.5
20260902163545 94 0 0.0 5.0 0.00 0.00 0.00 21 1020.6
20260902163101 94 328 1.0 10.0 0.00 0.00 0.00 21 1020.6
20260902162545 94 0 1.0 10.0 0.00 0.00 0.00 21 1020.5
20260902162049 92 201 1.0 7.0 0.00 0.00 0.00 22 1020.6
20260902161601 92 201 2.0 7.0 0.00 0.00 0.00 22 1020.7
20260902161044 94 284 0.0 6.0 0.00 0.00 0.00 21 1020.7
20260902160545 94 280 2.0 6.0 0.00 0.00 0.00 21 1020.8
20260902160119 94 0 1.0 5.0 0.00 0.00 0.00 21 1020.7
20260902155544 93 0 1.0 5.0 0.00 0.00 0.00 21 1020.8
20260902155045 94 234 0.0 6.0 0.00 0.00 0.00 20 1020.8
20260902154607 94 341 1.0 9.0 0.00 0.00 0.00 20 1020.8
20260902154045 94 148 2.0 9.0 0.00 0.00 0.00 21 1020.8
20260902153542 92 233 2.0 9.0 0.00 0.00 0.00 22 1020.8
20260902153100 92 178 0.0 12.0 0.00 0.00 0.00 22 1020.8
20260902152543 92 227 5.0 12.0 0.00 0.00 0.00 22 1020.8
20260902152048 94 213 1.0 12.0 0.00 0.00 0.00 21 1020.8
20260902151600 93 308 4.0 12.0 0.00 0.00 0.00 22 1020.9
20260902151046 93 90 2.0 9.0 0.00 0.00 0.00 21 1020.9
20260902150542 93 215 3.0 9.0 0.00 0.00 0.00 22 1020.9
20260902150104 93 186 0.0 9.0 0.00 0.00 0.00 21 1020.9
20260902145543 92 351 1.0 9.0 0.00 0.00 0.00 22 1020.9
20260902145046 92 125 3.0 9.0 0.00 0.00 0.00 22 1021.1
20260902144603 92 126 3.0 10.0 0.00 0.00 0.00 22 1021.0
20260902144045 92 214 4.0 10.0 0.00 0.00 0.00 21 1021.1
20260902143542 93 265 2.0 10.0 0.00 0.00 0.00 21 1021.1
20260902143055 93 251 1.0 5.0 0.00 0.00 0.00 21 1021.3
20260902142546 93 297 0.0 10.0 0.00 0.00 0.00 21 1021.2
20260902142045 92 232 2.0 10.0 0.00 0.00 0.00 22 1021.1
20260902141600 93 217 4.0 10.0 0.00 0.00 0.00 22 1021.3
20260902141045 93 196 1.0 6.0 0.00 0.00 0.00 21 1021.3
20260902140542 93 235 1.0 10.0 0.00 0.00 0.00 22 1021.4
20260902140105 92 230 3.0 10.0 0.00 0.00 0.00 22 1021.5
20260902135543 92 273 2.0 9.0 0.00 0.00 0.00 22 1021.5
20260902135046 92 190 3.0 12.0 0.00 0.00 0.00 22 1021.6
20260902134603 92 191 2.0 13.0 0.00 0.00 0.00 23 1021.5
20260902134102 91 222 6.0 13.0 0.00 0.00 0.00 24 1021.7
20260902133547 91 235 0.0 7.0 0.00 0.00 0.00 23 1021.7
20260902133057 90 220 4.0 10.0 0.00 0.00 0.00 24 1021.7
20260902132545 91 164 3.0 10.0 0.00 0.00 0.00 23 1021.7
20260902132051 90 209 5.0 10.0 0.00 0.00 0.00 24 1021.7
20260902131556 90 153 2.0 10.0 0.00 0.00 0.00 24 1021.7
20260902131045 90 235 3.0 10.0 0.00 0.00 0.00 25 1021.8
20260902130545 90 187 5.0 10.0 0.00 0.00 0.00 25 1021.8
20260902130100 91 208 2.0 8.0 0.00 0.00 0.00 24 1021.7
20260902125547 90 0 2.0 8.0 0.00 0.00 0.00 24 1021.8
20260902125044 92 278 1.0 8.0 0.00 0.00 0.00 23 1021.8
20260902124554 92 283 0.0 9.0 0.00 0.00 0.00 23 1021.9
20260902124045 92 184 1.0 9.0 0.00 0.00 0.00 22 1022.0
20260902123545 92 257 3.0 9.0 0.00 0.00 0.00 22 1022.0
20260902123103 92 0 0.0 3.0 0.00 0.00 0.00 22 1022.0
20260902122545 91 253 0.0 5.0 0.00 0.00 0.00 24 1022.1
20260902122047 89 0 1.0 5.0 0.00 0.00 0.00 24 1022.2
20260902121552 89 154 2.0 5.0 0.00 0.00 0.00 23 1022.2
20260902121045 90 230 0.0 6.0 0.00 0.00 0.00 23 1022.3
20260902120545 90 224 1.0 6.0 0.00 0.00 0.00 24 1022.3
20260902120056 90 298 0.0 4.0 0.00 0.00 0.00 25 1022.4
20260902115545 91 195 0.0 4.0 0.00 0.00 0.00 25 1022.4
20260902115045 89 8 0.0 4.0 0.00 0.00 0.00 28 1022.5
20260902114556 87 228 1.0 5.0 0.00 0.00 0.00 32 1022.5
20260902114046 87 49 1.0 5.0 0.00 0.00 0.00 31 1022.6
20260902113543 88 7 2.0 4.0 0.00 0.00 0.00 31 1022.6
20260902113105 89 335 0.0 3.0 0.00 0.00 0.00 30 1022.7
20260902112545 87 0 0.0 3.0 0.00 0.00 0.00 34 1022.8
20260902112043 86 19 0.0 3.0 0.00 0.00 0.00 35 1022.8
20260902111600 86 0 0.0 3.0 0.00 0.00 0.00 35 1022.9
20260902111043 85 0 0.0 5.0 0.00 0.00 0.00 36 1022.9
20260902110546 84 0 2.0 5.0 0.00 0.00 0.00 38 1022.9
20260902110057 84 0 2.0 4.0 0.00 0.00 0.00 38 1023.0
20260902105545 85 0 1.0 4.0 0.00 0.00 0.00 36 1023.1
20260902105042 85 0 1.0 4.0 0.00 0.00 0.00 38 1023.0
20260902104615 86 172 0.0 5.0 0.00 0.00 0.00 36 1023.0
20260902104042 83 351 0.0 5.0 0.00 0.00 0.00 40 1023.0
20260902103545 83 182 1.0 4.0 0.00 0.00 0.00 40 1023.1
20260902103105 83 100 1.0 3.0 0.00 0.00 0.00 38 1023.1
20260902102547 83 31 0.0 4.0 0.00 0.00 0.00 40 1023.1
20260902102044 81 0 1.0 5.0 0.00 0.00 0.00 41 1023.1
20260902101605 81 145 2.0 5.0 0.00 0.00 0.00 42 1023.2
20260902101046 81 151 2.0 4.0 0.00 0.00 0.00 41 1023.0
20260902100547 83 30 1.0 5.0 0.00 0.00 0.00 40 1023.0
20260902100056 80 222 2.0 5.0 0.00 0.00 0.00 43 1023.0
20260902095546 81 153 1.0 4.0 0.00 0.00 0.00 40 1023.1
20260902095046 81 247 0.0 4.0 0.00 0.00 0.00 43 1023.0
20260902094600 79 201 2.0 4.0 0.00 0.00 0.00 45 1023.0
20260902094044 80 163 0.0 3.0 0.00 0.00 0.00 44 1023.0
20260902093543 80 78 0.0 3.0 0.00 0.00 0.00 44 1022.9
20260902093103 79 12 0.0 3.0 0.00 0.00 0.00 46 1022.9
20260902092542 79 180 1.0 2.0 0.00 0.00 0.00 45 1022.9
20260902092046 79 173 0.0 5.0 0.00 0.00 0.00 44 1022.9
20260902091603 77 0 2.0 5.0 0.00 0.00 0.00 47 1022.9
20260902091045 77 151 2.0 5.0 0.00 0.00 0.00 48 1022.8
20260902090545 78 136 1.0 4.0 0.00 0.00 0.00 48 1022.9
20260902090119 77 0 0.0 5.0 0.00 0.00 0.00 48 1022.8
20260902085545 77 138 1.0 5.0 0.00 0.00 0.00 48 1022.8
20260902085047 77 179 1.0 5.0 0.00 0.00 0.00 48 1022.7
20260902084603 77 126 0.0 4.0 0.00 0.00 0.00 47 1022.8
20260902084042 77 139 0.0 5.0 0.00 0.00 0.00 47 1022.7
20260902083543 76 0 1.0 5.0 0.00 0.00 0.00 47 1022.7
20260902083053 76 178 1.0 4.0 0.00 0.00 0.00 46 1022.6
20260902082542 77 0 0.0 3.0 0.00 0.00 0.00 42 1022.6
20260902082046 76 0 0.0 3.0 0.00 0.00 0.00 43 1022.6
20260902081616 76 84 0.0 3.0 0.00 0.00 0.00 43 1022.5
20260902081046 76 168 1.0 3.0 0.00 0.00 0.00 42 1022.5
20260902080546 76 0 1.0 3.0 0.00 0.00 0.00 41 1022.4
20260902080059 76 66 0.0 2.0 0.00 0.00 0.00 40 1022.3
20260902075545 75 0 0.0 3.0 0.00 0.00 0.00 42 1022.3
20260902075043 74 95 0.0 3.0 0.00 0.00 0.00 43 1022.2
20260902074613 74 0 0.0 3.0 0.00 0.00 0.00 43 1022.1
20260902074042 75 0 0.0 1.0 0.00 0.00 0.00 42 1022.1
20260902073542 74 0 0.0 2.0 0.00 0.00 0.00 44 1022.1
20260902073053 73 0 0.0 5.0 0.00 0.00 0.00 46 1022.1
20260902072545 72 144 1.0 5.0 0.00 0.00 0.00 46 1022.1
20260902072042 71 174 2.0 5.0 0.00 0.00 0.00 46 1022.1
20260902071608 71 134 0.0 4.0 0.00 0.00 0.00 45 1022.1
20260902071044 71 176 0.0 4.0 0.00 0.00 0.00 45 1022.0
20260902070545 71 145 1.0 4.0 0.00 0.00 0.00 45 1022.0
20260902070100 71 164 0.0 4.0 0.00 0.00 0.00 44 1021.9
20260902065543 70 0 0.0 4.0 0.00 0.00 0.00 44 1021.8
20260902065043 70 0 1.0 4.0 0.00 0.00 0.00 43 1021.8
20260902064556 70 151 0.0 4.0 0.00 0.00 0.00 42 1021.7
20260902064044 70 161 1.0 4.0 0.00 0.00 0.00 42 1021.6
20260902063542 70 0 0.0 5.0 0.00 0.00 0.00 41 1021.6
20260902063101 70 143 1.0 5.0 0.00 0.00 0.00 40 1021.6
20260902062545 70 138 0.0 3.0 0.00 0.00 0.00 40 1021.6
20260902062047 70 134 0.0 4.0 0.00 0.00 0.00 39 1021.4
20260902061044 70 0 0.0 3.0 0.00 0.00 0.00 38 1021.4
20260902060542 70 89 0.0 3.0 0.00 0.00 0.00 38 1021.3
20260902055542 70 0 0.0 2.0 0.00 0.00 0.00 37 1021.4
20260902055045 71 0 0.0 1.0 0.00 0.00 0.00 36 1021.3
20260902054611 72 0 0.0 2.0 0.00 0.00 0.00 36 1021.1
20260902054043 71 0 0.0 2.0 0.00 0.00 0.00 36 1020.9
20260902053544 71 0 0.0 3.0 0.00 0.00 0.00 36 1020.9
20260902053105 71 0 0.0 3.0 0.00 0.00 0.00 36 1020.8
20260902052542 72 116 0.0 3.0 0.00 0.00 0.00 35 1020.7
20260902052042 72 42 0.0 3.0 0.00 0.00 0.00 34 1020.8
20260902051555 73 0 0.0 3.0 0.00 0.00 0.00 33 1020.8
20260902051043 72 0 0.0 4.0 0.00 0.00 0.00 34 1020.8
20260902050545 72 0 0.0 4.0 0.00 0.00 0.00 34 1020.8
20260902050058 72 149 0.0 2.0 0.00 0.00 0.00 34 1020.7
20260902045546 72 0 0.0 2.0 0.00 0.00 0.00 33 1020.7
20260902045043 72 0 0.0 3.0 0.00 0.00 0.00 34 1020.7
20260902044602 72 0 0.0 3.0 0.00 0.00 0.00 33 1020.8
20260902044044 72 66 1.0 3.0 0.00 0.00 0.00 33 1020.7
20260902043543 72 0 0.0 2.0 0.00 0.00 0.00 33 1020.6
20260902043103 72 70 0.0 2.0 0.00 0.00 0.00 33 1020.6
20260902042544 72 0 0.0 2.0 0.00 0.00 0.00 33 1020.6
20260902042043 73 70 0.0 1.0 0.00 0.00 0.00 33 1020.5
20260902041556 73 0 0.0 1.0 0.00 0.00 0.00 33 1020.6
20260902041047 72 0 0.0 1.0 0.00 0.00 0.00 33 1020.6
20260902040544 72 0 0.0 1.0 0.00 0.00 0.00 33 1020.7
20260902040058 72 0 0.0 1.0 0.00 0.00 0.00 33 1020.8
20260902035543 72 0 0.0 1.0 0.00 0.00 0.00 33 1020.8
20260902035047 72 0 0.0 1.0 0.00 0.00 0.00 33 1020.8
20260902034605 72 0 0.0 0.0 0.00 0.00 0.00 33 1020.9
20260902034046 73 0 0.0 1.0 0.00 0.00 0.00 33 1020.8
20260902033543 73 0 0.0 1.0 0.00 0.00 0.00 33 1020.8
20260902033101 73 0 0.0 1.0 0.00 0.00 0.00 33 1020.9
20260902032543 73 0 0.0 2.0 0.00 0.00 0.00 32 1020.9
20260902032042 73 0 0.0 2.0 0.00 0.00 0.00 32 1020.8
20260902031600 73 0 0.0 2.0 0.00 0.00 0.00 32 1020.7
20260902031042 73 51 0.0 2.0 0.00 0.00 0.00 32 1020.8
20260902030545 74 68 0.0 2.0 0.00 0.00 0.00 32 1020.8
20260902030055 73 0 0.0 2.0 0.00 0.00 0.00 31 1020.7
20260902025545 74 0 0.0 0.0 0.00 0.00 0.00 32 1020.7
20260902025042 74 0 0.0 0.0 0.00 0.00 0.00 31 1020.7
20260902024558 74 0 0.0 0.0 0.00 0.00 0.00 31 1020.7
20260902024042 73 0 0.0 0.0 0.00 0.00 0.00 31 1020.6
20260902023542 73 0 0.0 1.0 0.00 0.00 0.00 32 1020.7
20260902023108 73 0 0.0 3.0 0.00 0.00 0.00 32 1020.6
20260902022544 73 0 0.0 4.0 0.00 0.00 0.00 33 1020.4
20260902022043 73 0 1.0 4.0 0.00 0.00 0.00 32 1020.4
20260902021554 73 15 2.0 4.0 0.00 0.00 0.00 33 1020.5
20260902021042 73 360 2.0 4.0 0.00 0.00 0.00 34 1020.3
20260902020546 74 0 0.0 0.0 0.00 0.00 0.00 34 1020.4
20260902020058 73 0 0.0 0.0 0.00 0.00 0.00 35 1020.3
20260902015543 73 0 0.0 0.0 0.00 0.00 0.00 35 1020.3
20260902015043 73 0 0.0 0.0 0.00 0.00 0.00 35 1020.4
20260902014555 72 0 0.0 0.0 0.00 0.00 0.00 35 1020.4
20260902014045 72 0 0.0 1.0 0.00 0.00 0.00 36 1020.3
20260902013544 71 0 0.0 1.0 0.00 0.00 0.00 36 1020.3
20260902013056 70 0 0.0 1.0 0.00 0.00 0.00 38 1020.4
20260902012542 70 0 0.0 3.0 0.00 0.00 0.00 38 1020.4
20260902012046 70 0 0.0 4.0 0.00 0.00 0.00 38 1020.4
20260902011554 71 0 1.0 4.0 0.00 0.00 0.00 38 1020.4
20260902011042 73 295 1.0 3.0 0.00 0.00 0.00 37 1020.3
20260902010542 74 0 1.0 3.0 0.00 0.00 0.00 34 1020.3
20260902005543 76 0 0.0 1.0 0.00 0.00 0.00 29 1020.2
20260902005047 76 0 0.0 1.0 0.00 0.00 0.00 28 1020.2
20260902004556 77 0 0.0 1.0 0.00 0.00 0.00 28 1020.1
20260902004204 77 0 0.0 2.0 0.00 0.00 0.00 27 1020.2
20260902003543 77 0 0.0 2.0 0.00 0.00 0.00 27 1020.2
20260902003103 77 0 1.0 2.0 0.00 0.00 0.00 27 1020.2
20260902002545 77 185 0.0 2.0 0.00 0.00 0.00 27 1020.2
20260902002043 77 186 0.0 2.0 0.00 0.00 0.00 27 1020.3
20260902001620 77 185 0.0 2.0 0.00 0.00 0.00 27 1020.3
20260902001046 77 0 0.0 2.0 0.00 0.00 0.00 27 1020.3
20260902000543 77 0 0.0 2.0 0.00 0.00 0.00 27 1020.4
20260901235547 77 0 0.0 0.0 0.00 0.00 0.00 27 1020.4
20260901235042 78 0 0.0 2.0 0.00 0.00 0.00 28 1020.4
20260901234555 78 0 0.0 2.0 0.00 0.00 0.00 28 1020.4
20260901234046 78 0 0.0 2.0 0.00 0.00 0.00 27 1020.2
20260901233543 78 282 0.0 2.0 0.00 0.00 0.00 27 1020.4
20260901233058 78 0 0.0 2.0 0.00 0.00 0.00 27 1020.3
20260901232544 78 0 0.0 2.0 0.00 0.00 0.00 27 1020.3
20260901232044 78 0 0.0 1.0 0.00 0.00 0.00 27 1020.3
20260901231602 78 0 0.0 0.0 0.00 0.00 0.00 27 1020.3
20260901231043 78 0 0.0 0.0 0.00 0.00 0.00 27 1020.3
20260901230544 78 0 0.0 2.0 0.00 0.00 0.00 27 1020.2
20260901230056 78 0 0.0 2.0 0.00 0.00 0.00 27 1020.1
20260901225543 78 290 0.0 1.0 0.00 0.00 0.00 26 1020.1
20260901225044 79 0 0.0 1.0 0.00 0.00 0.00 25 1020.0
20260901224600 79 0 0.0 2.0 0.00 0.00 0.00 25 1020.0
20260901224043 79 0 0.0 2.0 0.00 0.00 0.00 24 1020.0
20260901223545 79 0 0.0 2.0 0.00 0.00 0.00 24 1020.0
20260901223056 79 0 0.0 2.0 0.00 0.00 0.00 23 1019.9
20260901222546 79 0 0.0 2.0 0.00 0.00 0.00 23 1020.0
20260901222047 79 0 0.0 1.0 0.00 0.00 0.00 23 1019.9
20260901221601 80 0 0.0 2.0 0.00 0.00 0.00 22 1019.9
20260901221044 80 290 0.0 2.0 0.00 0.00 0.00 22 1019.9
20260901220546 81 0 0.0 2.0 0.00 0.00 0.00 22 1019.9
20260901220116 81 0 0.0 2.0 0.00 0.00 0.00 22 1019.8
20260901215545 80 0 0.0 2.0 0.00 0.00 0.00 22 1019.8
20260901215045 80 0 0.0 0.0 0.00 0.00 0.00 23 1019.8
20260901214604 81 0 0.0 0.0 0.00 0.00 0.00 23 1019.8
20260901214044 81 0 0.0 0.0 0.00 0.00 0.00 23 1019.8
20260901213548 81 0 0.0 0.0 0.00 0.00 0.00 23 1019.8
20260901213056 81 0 0.0 0.0 0.00 0.00 0.00 22 1019.8
20260901212546 81 0 0.0 0.0 0.00 0.00 0.00 23 1019.7
20260901212049 81 0 0.0 1.0 0.00 0.00 0.00 22 1019.7
20260901211600 81 0 0.0 1.0 0.00 0.00 0.00 24 1019.7
20260901211043 81 0 0.0 0.0 0.00 0.00 0.00 22 1019.7
20260901210544 81 0 0.0 2.0 0.00 0.00 0.00 23 1019.7
20260901210057 81 0 0.0 2.0 0.00 0.00 0.00 22 1019.7
20260901205544 81 0 0.0 2.0 0.00 0.00 0.00 22 1019.7
20260901205049 81 0 0.0 2.0 0.00 0.00 0.00 22 1019.6
20260901204553 82 290 0.0 2.0 0.00 0.00 0.00 22 1019.7
20260901204045 82 0 0.0 3.0 0.00 0.00 0.00 22 1019.6
20260901203545 82 290 1.0 3.0 0.00 0.00 0.00 21 1019.6
20260901203102 83 299 0.0 2.0 0.00 0.00 0.00 22 1019.4
20260901202542 83 0 0.0 2.0 0.00 0.00 0.00 22 1019.3
20260901202044 83 297 0.0 1.0 0.00 0.00 0.00 22 1019.2
20260901201603 83 0 0.0 1.0 0.00 0.00 0.00 21 1019.1
20260901201043 83 0 0.0 0.0 0.00 0.00 0.00 21 1019.1
20260901200541 83 0 0.0 1.0 0.00 0.00 0.00 21 1019.0
20260901200056 83 0 0.0 1.0 0.00 0.00 0.00 21 1018.8
20260901195545 84 0 0.0 1.0 0.00 0.00 0.00 21 1018.6
20260901195046 84 0 0.0 2.0 0.00 0.00 0.00 20 1018.6
20260901194555 84 0 0.0 3.0 0.00 0.00 0.00 20 1018.6
20260901194048 84 297 0.0 3.0 0.00 0.00 0.00 20 1018.5
20260901193545 84 0 0.0 2.0 0.00 0.00 0.00 20 1018.4
20260901193056 84 0 0.0 3.0 0.00 0.00 0.00 20 1018.3